Location: Franzen
(48.6167°N, 15.3833°E)
Time: 14:07:52
(UTC+00:00)

Cosmos 44 Rocket - Pass Details

Date: 22 April 2021
Orbit: 636 x 754 km, 65.1° (Epoch: 16 May)

Event Time Altitude Azimuth Distance (km) Brightness Sun altitude
Rises 20:12:19 0° 207° (SSW) 3,101 6.4 -18.9°
Reaches altitude 10° 20:14:39 10° 205° (SSW) 2,203 5.6 -19.2°
Maximum altitude 20:19:39 66° 123° (ESE) 804 3.3 -19.7°
Drops below altitude 10° 20:24:49 10° 43° (NE) 2,274 6.0 -20.3°
Sets 20:27:15 0° 40° (NE) 3,210 6.9 -20.5°
